Regional Weather Roundup
Issued by NWS New Orleans/Baton Rouge, LA

Home | Current Version | Previous Version | Text Only | Print | Product List | Glossary On
Versions: 1 2 3 4 5 6 7 8 9 10 11 12 13 14 15 16 17 18 19 20 21 22 23 24 25 26 27 28 29 30 31 32 33 34 35 36 37 38 39 40 41 42 43 44 45 46 47 48 49 50
000
ASUS44 KLIX 311210
RWRLIX
NEW ORLEANS REGIONAL WEATHER ROUNDUP
NATIONAL WEATHER SERVICE NEW ORLEANS LA
700 AM CDT FRI OCT 31 2014

NOTE: "FAIR" INDICATES FEW OR NO CLOUDS BELOW 12,000 FEET WITH NO
      SIGNIFICANT WEATHER AND/OR OBSTRUCTIONS TO VISIBILITY.
      SKY/WX - SKY CONDITION AND SIGNIFICANT WEATHER.
      TMP - AIR TEMPERATURE.     DP    - DEWPOINT TEMPERATURE.
      RH  - RELATIVE HUMIDITY.   PRES  - PRESSURE.
      HI  - HEAT INDEX.          WCI   - WIND CHILL INDEX.

*  THESE STATIONS ARE NOT NWS OR FAA STATIONS AND ARE NOT UNDER
   NWS QUALITY CONTROL.

LAZ038-040-048-061>063-065>067-069-311300-
SOUTHEAST LOUISIANA

CITY           SKY/WX    TMP DP  RH WIND       PRES   REMARKS
N.O. AUDUBON   NOT AVBL
N.O. INTL ARPT CLEAR     56  51  84 W5        30.04R
6HR MIN TEMP:  52; 6HR MAX TEMP:  59;

N.O. LAKEFRONT CLEAR     66  49  54 N9        30.04R
6HR MIN TEMP:  64; 6HR MAX TEMP:  68;

N.O. DOWNTOWN*   N/A     61  48  63 CALM      30.04S
6HR MIN TEMP:  61; 6HR MAX TEMP:  66;

SLIDELL        CLEAR     44  40  85 CALM      30.04R
6HR MIN TEMP:  43; 6HR MAX TEMP:  48;

BATON ROUGE    CLEAR     47  44  90 CALM      30.06R
6HR MIN TEMP:  47; 6HR MAX TEMP:  50;

BOOTHVILLE     CLEAR     64  51  62 N5        30.03R
6HR MIN TEMP:  64; 6HR MAX TEMP:  66;

BELLE CHASSE   PTCLDY    49  45  86 CALM      30.04R
6HR MIN TEMP:  49; 6HR MAX TEMP:  51;

BOGALUSA*        N/A     42  39  89 CALM      30.05S
6HR MIN TEMP:  41; 6HR MAX TEMP:  46;

NEW ROADS*       N/A     46  44  95 CALM      30.07R
6HR MIN TEMP:  46; 6HR MAX TEMP:  49;

GONZALES*        N/A     47  47 100 CALM      30.05S
6HR MIN TEMP:  47; 6HR MAX TEMP:  53;

HAMMOND*       CLEAR     45  43  93 CALM      30.06R
HOUMA*         CLEAR     52  48  87 CALM      30.05R
PORT FOURCHON* SUNNY     63  55  77 N6        30.07S

$$

MSZ070-080>082-311300-
SOUTHERN MISSISSIPPI

CITY           SKY/WX    TMP DP  RH WIND       PRES   REMARKS
MCCOMB         CLEAR     45  42  89 CALM      30.04R
6HR MIN TEMP:  45; 6HR MAX TEMP:  50;

GULFPORT       CLEAR     46  43  89 CALM      30.03R
6HR MIN TEMP:  46; 6HR MAX TEMP:  50;

BILOXI         CLEAR     52  44  73 NW2       30.03R
6HR MIN TEMP:  52; 6HR MAX TEMP:  56;

PASCAGOULA     MOCLDY    42  40  92 CALM      30.03R
6HR MIN TEMP:  39; 6HR MAX TEMP:  43;

STENNIS ARPT*  CLEAR     43  39  87 CALM      30.04

$$

COASTAL OBSERVATIONS
LAKE AND NEARSHORE STATIONS

STATION/POSITION TIME  TEMP    WIND        PRES    WAVE
                       AIR SEA DIR/SP/G            HT/PER
                 (UTC) (F)     (DEG/KT/KT) (MB)    (FT/S)
PASCAGOULA       1200   50     350/  7/  7 1016.1
WAVELAND YACHT   1200   52     300/  3/  4 1016.0
GRAND ISLE       1200   67 72   10/  8/ 12 1017.5
SOUTHWEST PASS   1200   69 77              1016.9
NEW CANAL        1200   67 69  310/  1/  5 1017.4
SHELL BEACH      1200   66 67  350/  9/ 10 1016.7

OFFSHORE STATIONS

STATION/POSITION TIME  TEMP    WIND        PRES    WAVE
                       AIR SEA DIR/SP/G            HT/PER
                 (UTC) (F)     (DEG/KT/KT) (MB)    (FT/S)
64 S DAUPHIN ISL 1058   69 77  360/ 16/ 19 1016.5    3/ 4

$$




USA.gov is the U.S. government's official web portal to all federal, state and local government web resources and services.